Miamisburg, OH

12:05 PM EST on December 10, 2016 (GMT -0500)
Dayton-Wright Brothers

Weather History for KMGY - October, 2012

Change the Weather History Date:

Sunday, October 28, 2012

  Actual Average (KFFO) Record (KFFO)
Temperature  
Mean Temperature 45 °F -  
Max Temperature 48 °F 58 °F 77 °F (1999)
Min Temperature 42 °F 39 °F 28 °F (1997)
Degree Days  
Heating Degree Days 20    
Moisture  
Dew Point 35 °F    
Average Humidity 69    
Maximum Humidity 79    
Minimum Humidity 58    
Precipitation  
Precipitation 0.00 in - - ()
Sea Level Pressure  
Sea Level Pressure 30.06 in    
Wind  
Wind Speed 13 mph (North)    
Max Wind Speed 22 mph    
Max Gust Speed 28 mph    
Visibility 10 miles    
Events      
Averages and records for this station are not official NWS values.
T = Trace of Precipitation, MM = Missing Value Source: NWS Daily Summary

Daily Weather History Graph

Daily Weather History Graph

Search for Another Location

Airport or City:

Trip Planner

Search our weather history database for the weather conditions in past years. The results will help you decide how hot, cold, wet, or windy it might be!

Date:

Astronomy

Oct. 28, 2012 Rise Set
Actual Time 8:01 AM EDT 6:39 PM EDT
Civil Twilight 7:33 AM EDT 7:07 PM EDT
Nautical Twilight 7:01 AM EDT 7:38 PM EDT
Astronomical Twilight 6:30 AM EDT 8:09 PM EDT
Moon 5:56 PM EDT (10/28) 6:53 AM EDT (10/28)
Length of Visible Light 11h 33m
Length of Day
10h 38m
Waxing Gibbous, 99% of the Moon is Illuminated
Oct 28
Waxing Gibbous
Oct 29
Full
Nov 6
Last Quarter
Nov 13
New
Nov 20
First Quarter

Hourly Weather History & Observations

Time (EDT) Temp. Windchill Dew Point Humidity Pressure Visibility Wind Dir Wind Speed Gust Speed Precip Events Conditions
12:53 AM 44.1 °F 38.1 °F 36.0 °F 73% 30.11 in 10.0 mi North 11.5 mph - N/A   Mostly Cloudy
1:53 AM 44.1 °F 37.7 °F 36.0 °F 73% 30.09 in 10.0 mi North 12.7 mph - N/A   Overcast
2:53 AM 43.0 °F 36.8 °F 35.1 °F 74% 30.08 in 10.0 mi North 11.5 mph - N/A   Overcast
3:53 AM 43.0 °F 37.2 °F 35.1 °F 74% 30.07 in 10.0 mi NNE 10.4 mph - N/A   Overcast
4:53 AM 42.1 °F 36.6 °F 36.0 °F 79% 30.06 in 10.0 mi North 9.2 mph - N/A   Overcast
5:53 AM 43.0 °F 36.4 °F 36.0 °F 76% 30.07 in 10.0 mi North 12.7 mph - N/A   Overcast
6:27 AM 42.8 °F 36.6 °F 35.6 °F 76% 30.06 in 10.0 mi North 11.5 mph - N/A   Overcast
6:48 AM 42.8 °F 36.6 °F 35.6 °F 76% 30.06 in 10.0 mi North 11.5 mph - N/A   Overcast
6:53 AM 43.0 °F 36.8 °F 36.0 °F 76% 30.07 in 10.0 mi North 11.5 mph - N/A   Overcast
7:53 AM 42.1 °F 34.9 °F 36.0 °F 79% 30.07 in 10.0 mi North 13.8 mph - N/A   Overcast
8:53 AM 42.1 °F 34.9 °F 36.0 °F 79% 30.09 in 10.0 mi North 13.8 mph 20.7 mph N/A   Overcast
9:53 AM 43.0 °F 34.5 °F 36.0 °F 76% 30.09 in 10.0 mi North 19.6 mph 24.2 mph N/A   Overcast
10:53 AM 46.0 °F 39.0 °F 36.0 °F 68% 30.06 in 10.0 mi North 17.3 mph 25.3 mph N/A   Mostly Cloudy
11:53 AM 46.9 °F - 36.0 °F 66% 30.06 in 10.0 mi NNE 12.7 mph 20.7 mph N/A   Overcast
12:14 PM 48.2 °F - 35.6 °F 62% 30.04 in 10.0 mi NNE 21.9 mph 27.6 mph N/A   Mostly Cloudy
12:26 PM 48.2 °F - 37.4 °F 66% 30.03 in 10.0 mi North 16.1 mph 26.5 mph N/A   Mostly Cloudy
1:53 PM 46.0 °F 39.9 °F 36.0 °F 68% 30.04 in 10.0 mi North 13.8 mph 24.2 mph N/A   Overcast
2:53 PM 46.0 °F 39.0 °F 36.0 °F 68% 30.04 in 10.0 mi North 17.3 mph 23.0 mph N/A   Overcast
3:20 PM 46.4 °F 39.8 °F 35.6 °F 66% 30.02 in 10.0 mi North 16.1 mph 21.9 mph N/A   Overcast
3:53 PM 46.0 °F 39.6 °F 36.0 °F 68% 30.03 in 10.0 mi North 15.0 mph 26.5 mph N/A   Overcast
4:53 PM 46.0 °F 39.9 °F 36.0 °F 68% 30.03 in 10.0 mi NNW 13.8 mph 21.9 mph N/A   Overcast
5:53 PM 46.0 °F 40.2 °F 36.0 °F 68% 30.03 in 10.0 mi North 12.7 mph 24.2 mph N/A   Overcast
6:53 PM 46.0 °F 39.9 °F 34.0 °F 63% 30.04 in 10.0 mi North 13.8 mph - N/A   Overcast
7:53 PM 46.0 °F 39.6 °F 34.0 °F 63% 30.06 in 10.0 mi North 15.0 mph 25.3 mph N/A   Overcast
8:53 PM 45.0 °F 38.9 °F 30.9 °F 58% 30.06 in 10.0 mi North 12.7 mph 23.0 mph N/A   Overcast
9:53 PM 44.1 °F 36.5 °F 30.9 °F 60% 30.06 in 10.0 mi North 17.3 mph 25.3 mph N/A   Overcast
10:53 PM 44.1 °F 37.7 °F 30.0 °F 58% 30.06 in 10.0 mi North 12.7 mph 24.2 mph N/A   Overcast
11:53 PM 43.0 °F 36.4 °F 28.9 °F 58% 30.05 in 10.0 mi North 12.7 mph 25.3 mph N/A   Overcast